Regional Weather Roundup
Issued by NWS

Home | Current Version | Previous Version | Text Only | Print | Product List | Glossary On
Versions: 1 2 3 4 5 6 7 8 9 10 11 12 13 14 15 16 17 18 19 20 21 22 23 24 25 26 27 28 29 30 31 32 33 34 35 36 37 38 39 40 41 42 43 44 45 46 47 48 49 50
000
ASUS43 KIND 161609
RWRIN

WEATHER ROUNDUP FOR INDIANA
NATIONAL WEATHER SERVICE INDIANAPOLIS IN
1200 PM EDT TUE SEP 16 2014

NOTE: "FAIR" INDICATES FEW OR NO CLOUDS BELOW 12,000 FEET WITH NO
SIGNIFICANT WEATHER AND/OR OBSTRUCTIONS TO VISIBILITY.

* - STATION DOES NOT REPORT WEATHER SUCH AS PRECIPITATION OR FOG.

+ - STATION NOT QUALITY CONTROLLED BY THE NATIONAL WEATHER SERVICE.
    USE DATA WITH CAUTION...ESPECIALLY DEWPOINT AND RELATIVE
    HUMIDITY OBSERVATIONS.

INZ001>003-010>013-019-020-161700-
NORTHWEST INDIANA

CITY           SKY/WX    TMP DP  RH WIND       PRES   REMARKS
GARY /AIRPORT/ MOSUNNY   63  46  55 NW7       30.21F
KNOX *+        SUNNY     59  47  63 CALM      30.19F
LA PORTE +     CLOUDY    58  48  69 W5        30.21S
MICHIGAN CITY+ PTSUNNY   59  48  67 CALM      30.20F
MONTICELLO +   MOSUNNY   60  50  70 E5        30.19F
RENSSELAER +   PTSUNNY   59  54  82 CALM      30.21S
VALPARAISO     PTSUNNY   58  48  69 CALM      30.20F

$$

LMZ046-743>745-161700-
SOUTHERN LAKE MICHIGAN

STATION/POSITION TIME  TEMP WIND        PRES
                       AIR  DIR/SP/G
                 (UTC) (F)  (DEG/KT/KT) (MB)
MICHIGAN CITY    1600   58  230/  7/  9   N/A

$$

INZ004-005-014>016-021>024-161700-
NORTH CENTRAL INDIANA

CITY           SKY/WX    TMP DP  RH WIND       PRES   REMARKS
GOSHEN         SUNNY     62  45  53 CALM      30.19F
LOGANSPORT +   MOSUNNY   59  46  63 NE6       30.21S
PERU/GRISSOM   MOSUNNY   57  55  93 VRB6      30.20F
ROCHESTER +    SUNNY     63  46  55 NE6       30.19F
SOUTH BEND     NOT AVBL
WARSAW +       SUNNY     59  45  58 NW3       30.19F

$$

INZ006>009-017-018-025>027-161700-
NORTHEAST INDIANA

CITY           SKY/WX    TMP DP  RH WIND       PRES   REMARKS
ANGOLA *+      MOSUNNY   59  48  67 E5        30.18S
AUBURN +       MOSUNNY   57  45  62 CALM      30.19F
FORT WAYNE     PTSUNNY   58  50  75 CALM      30.20F
HUNTINGTON +   CLOUDY    54  51  89 NE3       30.19F

$$

INZ028-029-035-036-043>045-051>053-161700-
WEST CENTRAL INDIANA

CITY           SKY/WX    TMP DP  RH WIND       PRES   REMARKS
GREENCASTLE +  CLOUDY    59  50  72 CALM      30.21F
LAFAYETTE      PTSUNNY   60  50  69 VRB3      30.20F
TERRE HAUTE    CLOUDY    59  53  80 NE3       30.20F

$$

INZ030>032-037>040-046>048-054>057-064-065-161700-
CENTRAL INDIANA

CITY           SKY/WX    TMP DP  RH WIND       PRES   REMARKS
ANDERSON       CLOUDY    57  48  72 CALM      30.20F
CP ATTERBURY + CLOUDY    55  50  82 N6        30.20F
COLUMBUS       CLOUDY    55  54  94 N7        30.20S
FRANKFORT +    PTSUNNY   61  50  69 N7        30.21F
INDIANAPOLIS   PTSUNNY   60  50  69 NE9       30.19F
-EAGLE CREEK   PTSUNNY   59  48  67 VRB5      30.19F
KOKOMO *+      MOSUNNY   61  48  63 NE6       30.20S
MARION +       CLOUDY    58  48  69 N6        30.20S
MT COMFORT *+  CLOUDY    57  50  77 NE3       30.20F
SHELBYVILLE    CLOUDY    57  51  80 N5        30.19F
ZIONSVILLE +   PTSUNNY   59  49  68 N5        30.19F

$$

INZ033-034-041-042-049-050-058-059-161700-
EAST CENTRAL INDIANA

CITY           SKY/WX    TMP DP  RH WIND       PRES   REMARKS
MUNCIE         CLOUDY    58  49  72 CALM      30.19S

$$

INZ060-061-067>069-081>083-085>088-161700-
SOUTHWEST INDIANA

CITY           SKY/WX    TMP DP  RH WIND       PRES   REMARKS
EVANSVILLE     CLOUDY    61  53  75 N8        30.19S
WASHINGTON +   CLOUDY    60  52  76 N8        30.19S

$$

INZ062-063-066-070>080-084-089>092-161700-
SOUTH CENTRAL AND SOUTHEAST INDIANA

CITY           SKY/WX    TMP DP  RH WIND       PRES   REMARKS
BLOOMINGTON    CLOUDY    59  51  75 VRB7      30.19F

$$



USA.gov is the U.S. government's official web portal to all federal, state and local government web resources and services.